DELTA 1 DEB, 21297

Orbit data source: Space-Track

DELTA 1 DEB, 21297 is space debris in SSO originally from a launch on Thu, 12 Jun 1975 UTC launched from the Air Force Western Test Range (AFWTR). Debris objects in space refer to the collection of defunct objects orbiting the Earth. Examples of debris include non-operational satellites, rocket bodies, and fragments generated from explosions, collisions, or faulty payload assembly.

Loading next visibility...
Identifier
21297, 1975-052AJ
Orbit
SSO
Country
Flag of USUS
Related business
Manufacturer
Unknown
Mission
Spacecraft
Bus & Motor
Unknown
Mass
Unknown
Launch date (UTC)
1975-06-12 (50 years ago)
Launch vehicle
Unknown
Launch site
Air Force Western Test Range (AFWTR)
Object type
Payload
Rocket body
Debris
Shape & HBR
Unknown shape, 0.4 m
Radar Cross Section
Medium (>0.1 m² and <1 m²)

Expand to show TLE details & history
Last TLE update: 1 day ago

TLE from 1 day ago
0 DELTA 1 DEB
1 21297U 75052AJ  25306.47589869  .00000122  00000-0  32719-3 0  9992
2 21297  99.6824 143.0988 0070144 152.8165 265.0449 13.33234639675980
Epoch: 2025-11-02T11:25Z
TLE epoch observation values (Epoch: 2025-11-02T11:25:17.646Z)
Latitude
55.91855°
Longitude
-84.74611°
Altitude
1,148.72 km
Speed
7.282 km/s
True Right ascension
08h 34m 16s
True Declination
55° 46' 01"
Sunlit
Object was in daylight at epoch
Visualization orbit readout
Latitude
Unknown
Longitude
Unknown
Altitude
Unknown
Speed
Unknown
Apparent Right ascension
Unknown
Apparent Declination
Unknown
Sunlit
N/A
Visualization observer readout
Local Sidereal Time
08:39:55
Azimuth
Unknown
Elevation
Unknown
Doppler factor
Unknown
Orbital elements
Apogee altitude
1,184.588 km
Perigee altitude
1,079.232 km
Semi-major axis
7,510.047 km
Eccentricity
0.00701
Inclination
99.6824°
RAAN
143.0988°
Arg. of periapsis
152.8165°
True anomaly
264.24475°
Mean anomaly
265.0449°
Eccentric anomaly
264.64476°
Mean motion
3.33487 °/min
Orbital period
107.95 mins
BSTAR
0.00032719
Loading maneuver chart data...
Computing Atmospheric mass density...

Documentation

Showing up to 5 results
|